Overview Statistics Trail Chart Weather Telemetry Raw packets
 

This is the latest recevied weather packets stored in our database for station/object KO4ZGL-13. If no packets are shown the sender has not sent any weather packets the latest 10 day(s).

<< 72 73 74 75 76 77 78 >>
Time Temp. Humidity Pressure Rain* Wind** Luminosity Snow
1788126855 28.89° C 89% 1019.6 hPa 0 mm - 99 W/m² -
1788126549 28.89° C 89% 1019.5 hPa 0 mm - 106 W/m² -
1788126244 28.89° C 89% 1019.5 hPa 0 mm - 117 W/m² -
1788125939 28.89° C 90% 1019.6 hPa 0 mm - 120 W/m² -
1788125634 28.89° C 89% 1019.7 hPa 0 mm - 123 W/m² -
1788125330 28.89° C 88% 1020 hPa 0 mm - 138 W/m² -
1788125025 29.44° C 87% 1019.8 hPa 0 mm - 150 W/m² -
1788124725 28.89° C 87% 1019.6 hPa 0 mm - 154 W/m² -
1788124419 30° C 86% 1019.9 hPa 0 mm - 167 W/m² -
1788124115 30° C 84% 1019.7 hPa 0 mm - 164 W/m² -
1788123814 30° C 83% 1019.8 hPa 0 mm - 185 W/m² -
1788123512 30° C 84% 1019.9 hPa 0 mm - 199 W/m² -
1788123211 29.44° C 85% 1020 hPa 0 mm - 248 W/m² -
1788122907 29.44° C 87% 1020.1 hPa 0 mm - 209 W/m² -
1788122605 29.44° C 86% 1019.9 hPa 0 mm - 291 W/m² -
1788122301 29.44° C 86% 1019.9 hPa 0 mm - 232 W/m² -
1788121997 29.44° C 87% 1020 hPa 0 mm - 169 W/m² -
1788121696 28.89° C 87% 1020.3 hPa 0 mm - 183 W/m² -
1788121392 29.44° C 88% 1020 hPa 0 mm - 192 W/m² -
1788121087 29.44° C 88% 1020.2 hPa 0 mm - 159 W/m² -
1788120781 29.44° C 88% 1020.3 hPa 0 mm - 157 W/m² -
1788120477 29.44° C 87% 1020.2 hPa 0 mm - 184 W/m² -
1788120176 29.44° C 87% 1020.3 hPa 0 mm - 183 W/m² -
1788119872 28.89° C 87% 1020.3 hPa 0 mm - 193 W/m² -
1788119571 28.89° C 88% 1020.5 hPa 0 mm - 206 W/m² -

* Rain latest hour (hover to see other rain measurements)
** Current wind speed in m/s (hover to see current wind gust speed)